TimeCDT,TemperatureF,Dew PointF,Humidity,Sea Level PressureIn,VisibilityMPH,Wind Direction,Wind SpeedMPH,Gust SpeedMPH,PrecipitationIn,Events,Conditions,WindDirDegrees,DateUTC
12:15 AM,57.2,53.4,87,30.01,10.0,West,4.6,-,N/A,,Clear,280,2013-07-28 05:15:00
12:35 AM,57.2,53.4,87,30.01,10.0,West,3.5,-,N/A,,Clear,270,2013-07-28 05:35:00
12:55 AM,56.3,53.6,91,30.01,10.0,Calm,Calm,-,N/A,,Clear,0,2013-07-28 05:55:00
1:15 AM,54.7,53.1,94,30.00,10.0,Calm,Calm,-,N/A,,Clear,0,2013-07-28 06:15:00
1:35 AM,54.5,53.2,96,30.00,10.0,Calm,Calm,-,N/A,,Clear,0,2013-07-28 06:35:00
1:55 AM,54.1,53.1,96,30.00,10.0,Calm,Calm,-,N/A,,Clear,0,2013-07-28 06:55:00
2:15 AM,54.0,52.9,96,29.99,10.0,Calm,Calm,-,N/A,,Clear,0,2013-07-28 07:15:00
2:35 AM,53.2,52.3,97,29.99,10.0,Calm,Calm,-,N/A,,Clear,0,2013-07-28 07:35:00
2:55 AM,53.6,52.7,97,29.99,10.0,Calm,Calm,-,N/A,,Clear,0,2013-07-28 07:55:00
3:15 AM,52.7,51.8,97,29.99,10.0,Calm,Calm,-,N/A,,Clear,0,2013-07-28 08:15:00
3:35 AM,52.7,52.0,97,29.99,10.0,Calm,Calm,-,N/A,,Clear,0,2013-07-28 08:35:00
3:55 AM,52.3,51.6,97,30.01,10.0,Calm,Calm,-,N/A,,Clear,0,2013-07-28 08:55:00
4:15 AM,52.2,51.4,97,30.01,10.0,Calm,Calm,-,N/A,,Clear,0,2013-07-28 09:15:00
4:35 AM,52.2,51.6,98,30.01,10.0,Calm,Calm,-,N/A,,Clear,0,2013-07-28 09:35:00
4:55 AM,52.2,51.4,97,30.02,10.0,Calm,Calm,-,N/A,,Clear,0,2013-07-28 09:55:00
5:15 AM,52.2,51.4,97,30.02,10.0,SSW,3.5,-,N/A,,Clear,200,2013-07-28 10:15:00
5:35 AM,52.3,51.6,97,30.03,10.0,Calm,Calm,-,N/A,,Clear,0,2013-07-28 10:35:00
5:55 AM,52.0,51.3,97,30.02,10.0,Calm,Calm,-,N/A,,Clear,0,2013-07-28 10:55:00
6:15 AM,52.7,51.8,97,30.02,10.0,Calm,Calm,-,N/A,,Clear,0,2013-07-28 11:15:00
6:35 AM,54.3,53.6,97,30.02,10.0,Calm,Calm,-,N/A,,Clear,0,2013-07-28 11:35:00
6:55 AM,56.3,55.0,96,30.03,10.0,Calm,Calm,-,N/A,,Clear,0,2013-07-28 11:55:00
7:15 AM,57.7,55.4,92,30.03,10.0,Calm,Calm,-,N/A,,Clear,0,2013-07-28 12:15:00
7:35 AM,59.9,56.3,88,30.03,10.0,South,3.5,-,N/A,,Clear,190,2013-07-28 12:35:00
7:55 AM,61.7,56.3,82,30.04,10.0,Calm,Calm,-,N/A,,Clear,0,2013-07-28 12:55:00
8:15 AM,64.0,54.9,72,30.04,10.0,WSW,4.6,-,N/A,,Clear,240,2013-07-28 13:15:00
8:35 AM,66.0,55.6,69,30.05,10.0,SW,5.8,-,N/A,,Clear,230,2013-07-28 13:35:00
8:55 AM,66.6,54.9,66,30.05,10.0,WSW,5.8,-,N/A,,Clear,250,2013-07-28 13:55:00
9:15 AM,67.8,54.5,62,30.05,10.0,WSW,10.4,-,N/A,,Clear,240,2013-07-28 14:15:00
9:35 AM,68.9,54.0,59,30.05,10.0,WSW,8.1,-,N/A,,Clear,240,2013-07-28 14:35:00
9:55 AM,70.0,53.6,56,30.05,10.0,West,9.2,-,N/A,,Clear,260,2013-07-28 14:55:00
10:15 AM,70.7,53.4,54,30.05,10.0,SW,9.2,-,N/A,,Clear,230,2013-07-28 15:15:00
10:35 AM,71.4,53.4,53,30.05,10.0,SW,8.1,-,N/A,,Clear,220,2013-07-28 15:35:00
10:55 AM,72.0,53.6,52,30.05,10.0,SSW,8.1,-,N/A,,Clear,200,2013-07-28 15:55:00
11:15 AM,72.7,52.3,49,30.05,10.0,SSW,10.4,-,N/A,,Clear,210,2013-07-28 16:15:00
11:35 AM,73.2,52.0,47,30.04,10.0,WSW,9.2,16.1,N/A,,Clear,240,2013-07-28 16:35:00
11:55 AM,74.7,52.9,46,30.04,10.0,SW,10.4,-,N/A,,Scattered Clouds,230,2013-07-28 16:55:00
12:15 PM,73.9,52.3,47,30.04,10.0,SW,11.5,-,N/A,,Scattered Clouds,230,2013-07-28 17:15:00
12:35 PM,73.8,48.6,41,30.04,10.0,SW,11.5,-,N/A,,Mostly Cloudy,230,2013-07-28 17:35:00
12:55 PM,73.8,50.5,44,30.03,10.0,West,8.1,16.1,N/A,,Scattered Clouds,260,2013-07-28 17:55:00
1:15 PM,73.9,50.9,44,30.03,10.0,SSW,10.4,-,N/A,,Mostly Cloudy,200,2013-07-28 18:15:00
1:35 PM,75.2,51.4,43,30.03,10.0,WSW,8.1,-,N/A,,Mostly Cloudy,250,2013-07-28 18:35:00
1:55 PM,74.8,50.9,43,30.03,10.0,SW,8.1,16.1,N/A,,Mostly Cloudy,220,2013-07-28 18:55:00
2:15 PM,75.4,50.5,42,30.03,10.0,WSW,10.4,-,N/A,,Mostly Cloudy,250,2013-07-28 19:15:00
2:35 PM,75.4,50.9,42,30.03,10.0,WSW,12.7,17.3,N/A,,Scattered Clouds,240,2013-07-28 19:35:00
2:55 PM,76.3,50.9,41,30.03,10.0,West,9.2,-,N/A,,Scattered Clouds,270,2013-07-28 19:55:00
3:15 PM,77.0,51.3,40,30.03,10.0,WSW,6.9,-,N/A,,Scattered Clouds,250,2013-07-28 20:15:00
3:35 PM,75.9,52.7,44,30.03,10.0,West,9.2,-,N/A,,Scattered Clouds,260,2013-07-28 20:35:00
3:55 PM,76.6,52.3,43,30.02,10.0,West,10.4,-,N/A,,Mostly Cloudy,270,2013-07-28 20:55:00
4:15 PM,75.7,52.5,44,30.02,10.0,West,9.2,-,N/A,,Mostly Cloudy,260,2013-07-28 21:15:00
4:35 PM,75.7,52.7,45,30.02,10.0,SW,8.1,-,N/A,,Mostly Cloudy,220,2013-07-28 21:35:00
4:55 PM,77.5,54.1,44,30.02,10.0,West,9.2,-,N/A,,Scattered Clouds,270,2013-07-28 21:55:00
5:15 PM,77.7,53.1,42,30.03,10.0,West,9.2,-,N/A,,Scattered Clouds,260,2013-07-28 22:15:00
5:35 PM,77.4,52.7,42,30.03,10.0,West,12.7,17.3,N/A,,Scattered Clouds,270,2013-07-28 22:35:00
5:55 PM,76.8,52.7,43,30.03,10.0,West,9.2,-,N/A,,Clear,270,2013-07-28 22:55:00
6:15 PM,76.5,53.4,45,30.03,10.0,West,4.6,-,N/A,,Clear,270,2013-07-28 23:15:00
6:35 PM,75.7,54.0,47,30.04,10.0,West,5.8,-,N/A,,Clear,270,2013-07-28 23:35:00
6:55 PM,75.2,54.9,49,30.04,10.0,West,4.6,-,N/A,,Clear,280,2013-07-28 23:55:00
7:15 PM,73.8,55.8,53,30.04,10.0,West,3.5,-,N/A,,Clear,270,2013-07-29 00:15:00
7:35 PM,71.8,57.9,62,30.05,10.0,West,3.5,-,N/A,,Clear,280,2013-07-29 00:35:00
7:55 PM,69.6,60.1,72,30.05,10.0,West,3.5,-,N/A,,Clear,280,2013-07-29 00:55:00
8:15 PM,67.6,61.2,80,30.06,10.0,Calm,Calm,-,N/A,,Clear,0,2013-07-29 01:15:00
8:35 PM,64.9,60.6,86,30.06,10.0,Calm,Calm,-,N/A,,Clear,0,2013-07-29 01:35:00
8:55 PM,63.5,59.7,87,30.06,10.0,Calm,Calm,-,N/A,,Clear,0,2013-07-29 01:55:00
9:15 PM,62.6,59.5,90,30.06,10.0,Calm,Calm,-,N/A,,Clear,0,2013-07-29 02:15:00
9:35 PM,61.9,59.4,91,30.07,10.0,Calm,Calm,-,N/A,,Clear,0,2013-07-29 02:35:00
9:55 PM,61.7,59.5,93,30.07,10.0,Calm,Calm,-,N/A,,Clear,0,2013-07-29 02:55:00
10:15 PM,60.8,58.6,93,30.08,10.0,Calm,Calm,-,N/A,,Clear,0,2013-07-29 03:15:00
10:35 PM,60.8,59.2,94,30.08,10.0,Calm,Calm,-,N/A,,Clear,0,2013-07-29 03:35:00
10:55 PM,59.9,58.5,95,30.08,10.0,Calm,Calm,-,N/A,,Clear,0,2013-07-29 03:55:00
11:15 PM,59.4,58.1,96,30.08,10.0,Calm,Calm,-,N/A,,Clear,0,2013-07-29 04:15:00
11:35 PM,58.8,57.7,96,30.08,10.0,SSE,3.5,-,N/A,,Clear,150,2013-07-29 04:35:00
11:55 PM,58.8,57.7,96,30.08,10.0,Calm,Calm,-,N/A,,Clear,0,2013-07-29 04:55:00